FW4685 Weather Reports


Display with metric or nautical units.
time (UTC)temp
F
wind
direction
speed
MPH
gust
MPH
rain 1hr
in
rain 24hr
in
rain mn
in
humidity
%
barometer
mb
20260507210031 53 161 0.0 0.0 0.00 0.00 0.00 78 1018.5
20260507204023 53 29 0.0 0.0 0.00 0.00 0.00 77 1018.2
20260507203019 53 42 0.0 2.0 0.00 0.00 0.00 77 1018.1
20260507202031 54 70 0.0 2.0 0.00 0.00 0.00 76 1018.0
20260507201027 54 54 0.0 0.0 0.00 0.00 0.00 76 1017.8
20260507200043 54 28 0.0 0.0 0.00 0.00 0.00 75 1017.7
20260507195019 55 45 0.0 0.0 0.00 0.00 0.00 74 1017.7
20260507194031 55 39 0.0 0.0 0.00 0.00 0.00 73 1017.4
20260507193031 55 40 0.0 0.0 0.00 0.00 0.00 72 1017.4
20260507192028 56 156 0.0 2.0 0.00 0.00 0.00 70 1017.4
20260507191019 56 165 0.0 5.0 0.00 0.00 0.00 69 1017.4
20260507190031 56 179 1.0 5.0 0.00 0.00 0.00 69 1017.4
20260507185026 57 149 1.0 5.0 0.00 0.00 0.00 68 1017.4
20260507184024 57 140 1.0 7.0 0.00 0.00 0.00 67 1017.3
20260507183033 57 163 1.0 5.0 0.00 0.00 0.00 66 1017.3
20260507182027 57 150 1.0 5.0 0.00 0.00 0.00 65 1017.2
20260507181034 57 124 1.0 5.0 0.00 0.00 0.00 62 1017.1
20260507180031 58 148 1.0 7.0 0.00 0.00 0.00 62 1017.0
20260507175027 58 146 1.0 7.0 0.00 0.00 0.00 62 1017.0
20260507174019 58 157 1.0 7.0 0.00 0.00 0.00 62 1017.0
20260507173031 58 156 1.0 5.0 0.00 0.00 0.00 61 1016.9
20260507172026 59 150 1.0 5.0 0.00 0.00 0.00 61 1016.9
20260507171019 59 131 1.0 10.0 0.00 0.00 0.00 60 1016.9
20260507170059 60 135 0.0 5.0 0.00 0.00 0.00 60 1017.0
20260507165031 61 137 1.0 5.0 0.00 0.00 0.00 59 1016.8
20260507164107 62 157 1.0 7.0 0.00 0.00 0.00 56 1016.9
20260507163059 62 112 1.0 5.0 0.00 0.00 0.00 54 1016.9
20260507162031 63 147 2.0 7.0 0.00 0.00 0.00 54 1016.8
20260507161027 64 147 2.0 10.0 0.00 0.00 0.00 54 1017.0
20260507160022 64 139 2.0 7.0 0.00 0.00 0.00 52 1016.9
20260507155031 64 160 2.0 7.0 0.00 0.00 0.00 45 1016.9
20260507154027 63 157 2.0 7.0 0.00 0.00 0.00 47 1016.9
20260507153026 63 140 1.0 5.0 0.00 0.00 0.00 48 1017.0
20260507152039 63 170 0.0 2.0 0.00 0.00 0.00 46 1017.0
20260507151031 62 126 0.0 2.0 0.00 0.00 0.00 47 1017.0
20260507150047 63 52 0.0 2.0 0.00 0.00 0.00 47 1017.1
20260507145022 63 102 1.0 5.0 0.00 0.00 0.00 47 1017.1
20260507144040 63 113 1.0 5.0 0.00 0.00 0.00 47 1017.1
20260507143031 63 166 1.0 5.0 0.00 0.00 0.00 46 1017.3
20260507142026 63 150 1.0 5.0 0.00 0.00 0.00 47 1017.2
20260507141040 62 155 0.0 2.0 0.00 0.00 0.00 46 1017.3
20260507140131 62 163 0.0 2.0 0.00 0.00 0.00 45 1017.3
20260507135026 62 125 0.0 0.0 0.00 0.00 0.00 48 1017.4
20260507134022 62 116 1.0 5.0 0.00 0.00 0.00 48 1017.4
20260507133019 62 137 0.0 2.0 0.00 0.00 0.00 49 1017.4
20260507132031 62 45 0.0 2.0 0.00 0.00 0.00 49 1017.5
20260507131027 62 137 1.0 5.0 0.00 0.00 0.00 47 1017.6
20260507130043 61 71 0.0 2.0 0.00 0.00 0.00 51 1017.4
20260507125019 60 167 1.0 5.0 0.00 0.00 0.00 49 1017.6
20260507124050 60 149 0.0 2.0 0.00 0.00 0.00 53 1017.7
20260507123027 60 72 1.0 7.0 0.00 0.00 0.00 55 1017.8
20260507122020 60 139 1.0 5.0 0.00 0.00 0.00 55 1017.7
20260507121030 59 61 0.0 5.0 0.00 0.00 0.00 54 1017.7
20260507120027 59 23 2.0 7.0 0.00 0.00 0.00 56 1017.9
20260507115034 58 25 0.0 2.0 0.00 0.00 0.00 55 1017.8
20260507114018 58 25 1.0 5.0 0.00 0.00 0.00 56 1017.9
20260507113033 58 23 1.0 7.0 0.00 0.00 0.00 57 1017.7
20260507112046 58 80 0.0 2.0 0.00 0.00 0.00 56 1017.9
20260507111018 59 9 0.0 2.0 0.00 0.00 0.00 55 1017.9
20260507110030 59 183 0.0 2.0 0.00 0.00 0.00 54 1018.0
20260507105027 59 137 1.0 5.0 0.00 0.00 0.00 54 1018.0
20260507104019 58 202 0.0 2.0 0.00 0.00 0.00 53 1018.0
20260507103039 58 23 2.0 7.0 0.00 0.00 0.00 54 1018.0
20260507102031 59 35 1.0 5.0 0.00 0.00 0.00 57 1018.1
20260507101027 60 31 1.0 5.0 0.00 0.00 0.00 57 1018.2
20260507100042 61 351 1.0 5.0 0.00 0.00 0.00 54 1018.2
20260507095050 60 76 0.0 5.0 0.00 0.00 0.00 51 1018.1
20260507094046 60 42 1.0 7.0 0.00 0.00 0.00 51 1018.0
20260507093046 59 64 1.0 5.0 0.00 0.00 0.00 49 1018.1
20260507092019 57 192 1.0 2.0 0.00 0.00 0.00 55 1018.1
20260507091031 57 148 1.0 5.0 0.00 0.00 0.00 63 1018.2
20260507090027 56 58 1.0 5.0 0.00 0.00 0.00 65 1018.3
20260507085026 55 81 1.0 5.0 0.00 0.00 0.00 68 1018.2
20260507084018 54 131 1.0 5.0 0.00 0.00 0.00 72 1018.1
20260507083030 54 137 1.0 5.0 0.00 0.00 0.00 72 1018.2
20260507082027 53 128 1.0 5.0 0.00 0.00 0.00 76 1018.2
20260507081034 52 136 0.0 2.0 0.00 0.00 0.00 78 1018.2
20260507080019 52 48 0.0 2.0 0.00 0.00 0.00 80 1018.1
20260507075031 51 84 0.0 2.0 0.00 0.00 0.00 81 1018.1
20260507074026 50 24 1.0 5.0 0.00 0.00 0.00 83 1018.2
20260507073059 49 40 0.0 2.0 0.00 0.00 0.00 85 1018.1
20260507072030 48 22 1.0 5.0 0.00 0.00 0.00 86 1018.2
20260507071030 48 22 0.0 2.0 0.00 0.00 0.00 87 1018.1
20260507070026 47 22 0.0 0.0 0.00 0.00 0.00 90 1018.1
20260507065106 46 325 0.0 0.0 0.00 0.00 0.00 91 1018.2
20260507064018 44 52 0.0 0.0 0.00 0.00 0.00 94 1018.0
20260507063030 43 105 0.0 0.0 0.00 0.00 0.00 96 1018.2
20260507062025 43 77 0.0 0.0 0.00 0.00 0.00 97 1018.0
20260507061018 42 326 0.0 0.0 0.00 0.00 0.00 98 1018.0
20260507060019 41 357 0.0 0.0 0.00 0.00 0.00 98 1017.8
20260507055030 40 357 0.0 0.0 0.00 0.00 0.00 98 1017.9
20260507054046 40 330 0.0 0.0 0.00 0.00 0.00 98 1017.7
20260507053018 39 14 0.0 0.0 0.00 0.00 0.00 99 1017.6
20260507052051 39 354 0.0 0.0 0.00 0.00 0.00 98 1017.6
20260507051026 38 351 0.0 0.0 0.00 0.00 0.00 98 1017.7
20260507050018 38 6 0.0 0.0 0.00 0.00 0.00 98 1017.6
20260507045106 39 48 0.0 0.0 0.00 0.00 0.00 98 1017.5
20260507044018 39 53 0.0 0.0 0.00 0.00 0.00 98 1017.5
20260507043111 39 10 0.0 0.0 0.00 0.00 0.00 97 1017.5
20260507042026 40 32 0.0 0.0 0.00 0.00 0.00 97 1017.5
20260507041046 40 8 0.0 0.0 0.00 0.00 0.00 97 1017.5
20260507040019 40 53 0.0 0.0 0.00 0.00 0.00 97 1017.5
20260507035050 41 348 0.0 0.0 0.00 0.00 0.00 96 1017.4
20260507034031 41 353 0.0 0.0 0.00 0.00 0.00 96 1017.4
20260507033022 41 353 0.0 0.0 0.00 0.00 0.00 95 1017.3
20260507032030 42 21 0.0 0.0 0.00 0.00 0.00 95 1017.3
20260507031027 42 15 0.0 0.0 0.00 0.00 0.00 94 1017.2
20260507030022 42 17 0.0 0.0 0.00 0.00 0.00 94 1017.3
20260507025018 42 359 0.0 0.0 0.00 0.00 0.00 94 1017.2
20260507024030 42 17 0.0 0.0 0.00 0.00 0.00 94 1017.3
20260507023026 42 13 0.0 0.0 0.00 0.00 0.00 93 1017.4
20260507022019 43 1 0.0 0.0 0.00 0.00 0.00 93 1017.3
20260507021018 43 354 0.0 0.0 0.00 0.00 0.00 92 1017.1
20260507020030 44 17 0.0 0.0 0.00 0.00 0.00 92 1017.0
20260507015025 44 15 0.0 0.0 0.00 0.00 0.00 91 1017.1
20260507014022 45 1 0.0 0.0 0.00 0.00 0.00 91 1017.1
20260507013021 45 359 0.0 0.0 0.00 0.00 0.00 90 1017.1
20260507012031 46 15 0.0 0.0 0.00 0.00 0.00 89 1017.1
20260507011025 46 10 0.0 0.0 0.00 0.00 0.00 89 1017.1
20260507010022 46 23 0.0 0.0 0.00 0.00 0.00 88 1017.0
20260507005021 46 11 0.0 5.0 0.00 0.00 0.00 88 1017.0
20260507004033 46 9 0.0 0.0 0.00 0.00 0.00 87 1017.1
20260507003025 46 9 0.0 0.0 0.00 0.00 0.00 87 1017.1
20260507002022 46 5 0.0 0.0 0.00 0.00 0.00 87 1017.2
20260507001025 47 12 0.0 0.0 0.00 0.00 0.00 86 1017.1
20260507000018 47 358 0.0 0.0 0.00 0.00 0.00 85 1017.2
20260506235018 48 22 0.0 0.0 0.00 0.00 0.00 84 1017.0
20260506234033 48 19 0.0 0.0 0.00 0.00 0.00 83 1016.9
20260506233031 49 20 0.0 0.0 0.00 0.00 0.00 82 1016.9
20260506232026 49 32 0.0 0.0 0.00 0.00 0.00 81 1016.9
20260506231019 49 35 1.0 5.0 0.00 0.00 0.00 80 1016.9
20260506230029 50 30 0.0 0.0 0.00 0.00 0.00 80 1016.8
20260506225026 50 31 0.0 0.0 0.00 0.00 0.00 79 1016.9
20260506224025 50 29 0.0 0.0 0.00 0.00 0.00 78 1016.9
20260506223018 51 49 0.0 5.0 0.00 0.00 0.00 76 1016.9
20260506222029 51 28 0.0 5.0 0.00 0.00 0.00 75 1016.8
20260506221026 51 25 1.0 5.0 0.00 0.00 0.00 74 1016.7
20260506220045 51 26 2.0 7.0 0.00 0.00 0.00 74 1016.7
20260506215018 51 18 1.0 5.0 0.00 0.00 0.00 74 1016.7
20260506214030 52 26 1.0 5.0 0.00 0.00 0.00 73 1016.7
20260506213025 52 23 1.0 5.0 0.00 0.00 0.00 73 1016.7
20260506212022 52 25 1.0 5.0 0.00 0.00 0.00 73 1016.7
20260506211019 52 17 1.0 5.0 0.00 0.00 0.00 72 1016.6